EW4977 Weather Reports


Display with metric or nautical units.
time (UTC)temp
F
wind
direction
speed
MPH
gust
MPH
rain 1hr
in
rain 24hr
in
rain mn
in
humidity
%
barometer
mb
20260509043050 50 187 2.0 4.0 0.00 0.00 0.00 48 1005.4
20260509042532 50 178 2.0 3.0 0.00 0.00 0.00 47 1005.3
20260509042028 50 181 2.0 3.0 0.00 0.00 0.00 45 1005.3
20260509041550 50 190 1.0 2.0 0.00 0.00 0.00 45 1005.5
20260509041034 50 186 1.0 2.0 0.00 0.00 0.00 45 1005.5
20260509040531 50 192 1.0 2.0 0.00 0.00 0.00 45 1005.5
20260509040035 50 193 1.0 2.0 0.00 0.00 0.00 45 1005.6
20260509035528 50 190 0.0 2.0 0.00 0.00 0.00 46 1005.7
20260509035028 50 190 1.0 2.0 0.00 0.00 0.00 47 1005.9
20260509034601 50 181 1.0 3.0 0.00 0.00 0.00 47 1005.8
20260509034031 50 188 1.0 3.0 0.00 0.00 0.00 46 1005.8
20260509033528 50 179 2.0 3.0 0.00 0.00 0.00 48 1005.9
20260509033041 50 174 2.0 3.0 0.00 0.00 0.00 49 1005.8
20260509032527 51 186 1.0 2.0 0.00 0.00 0.00 48 1006.0
20260509032030 51 194 1.0 1.0 0.00 0.00 0.00 45 1006.1
20260509031539 51 193 1.0 2.0 0.00 0.00 0.00 46 1006.1
20260509031028 51 193 0.0 3.0 0.00 0.00 0.00 46 1006.3
20260509030531 51 197 1.0 3.0 0.00 0.00 0.00 46 1006.3
20260509030042 50 191 1.0 2.0 0.00 0.00 0.00 46 1006.3
20260509025531 50 191 1.0 2.0 0.00 0.00 0.00 47 1006.4
20260509025028 50 191 1.0 2.0 0.00 0.00 0.00 47 1006.2
20260509024543 50 193 1.0 2.0 0.00 0.00 0.00 48 1006.3
20260509024033 50 199 0.0 1.0 0.00 0.00 0.00 47 1006.4
20260509023530 50 0 0.0 1.0 0.00 0.00 0.00 46 1006.3
20260509023045 51 0 0.0 0.0 0.00 0.00 0.00 45 1006.2
20260509022528 51 0 0.0 0.0 0.00 0.00 0.00 44 1006.3
20260509022028 51 199 0.0 0.0 0.00 0.00 0.00 43 1006.4
20260509021541 51 0 0.0 0.0 0.00 0.00 0.00 43 1006.3
20260509021027 51 0 0.0 0.0 0.00 0.00 0.00 43 1006.3
20260509020532 52 199 0.0 0.0 0.00 0.00 0.00 43 1006.4
20260509020047 52 0 0.0 1.0 0.00 0.00 0.00 43 1006.4
20260509015531 53 0 0.0 1.0 0.00 0.00 0.00 44 1006.3
20260509015029 53 199 1.0 1.0 0.00 0.00 0.00 40 1006.3
20260509014541 53 199 1.0 1.0 0.00 0.00 0.00 42 1006.2
20260509014030 53 199 0.0 1.0 0.00 0.00 0.00 41 1006.3
20260509013530 54 199 0.0 1.0 0.00 0.00 0.00 41 1006.3
20260509013050 54 200 0.0 2.0 0.00 0.00 0.00 42 1006.3
20260509012530 54 0 1.0 2.0 0.00 0.00 0.00 42 1006.2
20260509012030 54 198 1.0 2.0 0.00 0.00 0.00 40 1006.2
20260509011541 55 203 0.0 2.0 0.00 0.00 0.00 41 1006.1
20260509011030 55 203 0.0 2.0 0.00 0.00 0.00 41 1006.2
20260509010533 55 197 0.0 1.0 0.00 0.00 0.00 40 1006.3
20260509010051 56 208 0.0 1.0 0.00 0.00 0.00 40 1006.2
20260509005529 56 208 0.0 1.0 0.00 0.00 0.00 39 1006.2
20260509005031 57 209 0.0 2.0 0.00 0.00 0.00 37 1006.1
20260509004537 57 212 0.0 2.0 0.00 0.00 0.00 35 1006.0
20260509004031 58 208 0.0 2.0 0.00 0.00 0.00 34 1006.0
20260509003531 59 229 0.0 2.0 0.00 0.00 0.00 33 1006.0
20260509003048 60 0 0.0 2.0 0.00 0.00 0.00 31 1006.0
20260509002531 61 227 1.0 2.0 0.00 0.00 0.00 30 1006.0
20260509002029 62 231 0.0 2.0 0.00 0.00 0.00 30 1005.9
20260509001543 63 226 1.0 2.0 0.00 0.00 0.00 31 1005.9
20260509001028 64 233 0.0 2.0 0.00 0.00 0.00 30 1005.8
20260509000529 64 233 0.0 3.0 0.00 0.00 0.00 29 1005.7
20260509000043 64 220 1.0 3.0 0.00 0.00 0.00 27 1005.8
20260508235531 64 220 1.0 3.0 0.00 0.00 0.00 28 1005.7
20260508235028 65 229 1.0 4.0 0.00 0.00 0.00 27 1005.7
20260508234540 65 224 1.0 4.0 0.00 0.00 0.00 29 1005.6
20260508234030 65 244 2.0 5.0 0.00 0.00 0.00 25 1005.6
20260508233530 65 262 2.0 5.0 0.00 0.00 0.00 25 1005.6
20260508233037 64 226 2.0 13.0 0.00 0.00 0.00 28 1005.5
20260508232528 64 204 3.0 13.0 0.00 0.00 0.00 26 1005.7
20260508232028 65 319 5.0 12.0 0.00 0.00 0.00 26 1005.7
20260508231548 65 228 2.0 6.0 0.00 0.00 0.00 26 1005.7
20260508231032 65 240 2.0 6.0 0.00 0.00 0.00 27 1005.7
20260508230531 65 224 3.0 6.0 0.00 0.00 0.00 27 1005.7
20260508230056 65 226 2.0 4.0 0.00 0.00 0.00 28 1005.7
20260508225531 65 223 2.0 5.0 0.00 0.00 0.00 28 1005.9
20260508225031 65 220 2.0 5.0 0.00 0.00 0.00 28 1005.9
20260508224546 65 220 2.0 5.0 0.00 0.00 0.00 27 1005.8
20260508224029 65 241 2.0 8.0 0.00 0.00 0.00 27 1005.8
20260508223531 65 219 2.0 8.0 0.00 0.00 0.00 29 1005.8
20260508223042 65 236 4.0 7.0 0.00 0.00 0.00 27 1005.8
20260508222530 65 213 3.0 7.0 0.00 0.00 0.00 27 1005.9
20260508222030 64 274 2.0 8.0 0.00 0.00 0.00 25 1005.9
20260508221548 64 276 4.0 8.0 0.00 0.00 0.00 25 1005.9
20260508221030 64 266 2.0 7.0 0.00 0.00 0.00 27 1005.9
20260508220530 64 169 2.0 7.0 0.00 0.00 0.00 29 1005.9
20260508220042 64 221 2.0 7.0 0.00 0.00 0.00 28 1006.0
20260508215530 64 224 3.0 7.0 0.00 0.00 0.00 29 1006.0
20260508215033 64 197 3.0 7.0 0.00 0.00 0.00 27 1006.1
20260508214544 64 263 2.0 12.0 0.00 0.00 0.00 27 1006.1
20260508214028 64 233 4.0 12.0 0.00 0.00 0.00 27 1006.2
20260508213530 64 288 4.0 11.0 0.00 0.00 0.00 27 1006.2
20260508213044 64 269 3.0 11.0 0.00 0.00 0.00 28 1006.1
20260508212527 64 238 4.0 11.0 0.00 0.00 0.00 26 1006.1
20260508212029 65 275 5.0 11.0 0.00 0.00 0.00 27 1006.3
20260508211542 65 212 3.0 8.0 0.00 0.00 0.00 27 1006.1
20260508211028 64 181 4.0 8.0 0.00 0.00 0.00 27 1006.2
20260508210530 64 218 4.0 10.0 0.00 0.00 0.00 27 1006.4
20260508210039 64 225 5.0 10.0 0.00 0.00 0.00 27 1006.4
20260508205530 64 231 3.0 10.0 0.00 0.00 0.00 30 1006.4
20260508205032 64 179 3.0 10.0 0.00 0.00 0.00 27 1006.4
20260508204544 64 266 3.0 9.0 0.00 0.00 0.00 26 1006.5
20260508204027 64 252 3.0 8.0 0.00 0.00 0.00 28 1006.5
20260508203530 64 236 2.0 8.0 0.00 0.00 0.00 27 1006.6
20260508203041 63 221 3.0 8.0 0.00 0.00 0.00 32 1006.8
20260508202531 63 285 4.0 9.0 0.00 0.00 0.00 27 1006.7
20260508202030 63 224 5.0 9.0 0.00 0.00 0.00 29 1006.8
20260508201546 63 286 2.0 6.0 0.00 0.00 0.00 27 1006.9
20260508201032 63 240 1.0 6.0 0.00 0.00 0.00 26 1007.0
20260508200530 64 243 2.0 6.0 0.00 0.00 0.00 26 1007.0
20260508200051 63 233 4.0 6.0 0.00 0.00 0.00 29 1007.1
20260508195529 62 235 1.0 13.0 0.00 0.00 0.00 27 1007.1
20260508195030 62 243 3.0 13.0 0.00 0.00 0.00 29 1007.1
20260508194539 62 329 7.0 13.0 0.00 0.00 0.00 25 1007.2
20260508194029 62 183 2.0 9.0 0.00 0.00 0.00 28 1007.3
20260508193533 62 233 3.0 6.0 0.00 0.00 0.00 31 1007.3
20260508193037 61 0 0.0 10.0 0.00 0.00 0.00 28 1007.3
20260508192533 61 249 4.0 11.0 0.00 0.00 0.00 27 1007.4
20260508192029 61 295 7.0 11.0 0.00 0.00 0.00 27 1007.4
20260508191535 61 240 5.0 11.0 0.00 0.00 0.00 28 1007.5
20260508191030 61 224 4.0 10.0 0.00 0.00 0.00 27 1007.5
20260508190528 61 289 3.0 11.0 0.00 0.00 0.00 27 1007.5
20260508190045 61 291 5.0 11.0 0.00 0.00 0.00 27 1007.7
20260508185533 61 291 2.0 7.0 0.00 0.00 0.00 27 1007.9
20260508185028 62 275 2.0 6.0 0.00 0.00 0.00 26 1007.9
20260508184543 62 304 1.0 7.0 0.00 0.00 0.00 28 1007.9
20260508184027 62 190 3.0 11.0 0.00 0.00 0.00 25 1008.0
20260508183527 62 240 6.0 11.0 0.00 0.00 0.00 25 1008.0
20260508183037 62 317 3.0 6.0 0.00 0.00 0.00 31 1008.0
20260508182533 62 238 2.0 8.0 0.00 0.00 0.00 28 1007.9
20260508182027 62 171 4.0 8.0 0.00 0.00 0.00 31 1008.1
20260508181537 61 192 2.0 9.0 0.00 0.00 0.00 30 1008.2
20260508181028 61 237 3.0 9.0 0.00 0.00 0.00 27 1008.2
20260508180532 61 224 2.0 5.0 0.00 0.00 0.00 29 1008.4
20260508180035 60 186 2.0 9.0 0.00 0.00 0.00 30 1008.6
20260508175528 60 274 3.0 9.0 0.00 0.00 0.00 29 1008.7
20260508175031 60 229 3.0 8.0 0.00 0.00 0.00 27 1008.9
20260508174542 60 147 5.0 8.0 0.00 0.00 0.00 30 1008.8
20260508174028 60 152 4.0 13.0 0.00 0.00 0.00 33 1008.9
20260508173529 59 192 2.0 13.0 0.00 0.00 0.00 33 1009.0
20260508173044 59 161 6.0 15.0 0.00 0.00 0.00 28 1009.1
20260508172531 59 210 3.0 15.0 0.00 0.00 0.00 29 1009.1
20260508172030 59 285 3.0 12.0 0.00 0.00 0.00 28 1009.1
20260508171552 59 231 3.0 11.0 0.00 0.00 0.00 30 1009.1
20260508171029 59 322 1.0 11.0 0.00 0.00 0.00 29 1009.1
20260508170530 59 309 4.0 11.0 0.00 0.00 0.00 28 1009.2
20260508170046 59 243 3.0 11.0 0.00 0.00 0.00 31 1009.3
20260508165527 58 194 3.0 11.0 0.00 0.00 0.00 32 1009.3
20260508165027 58 281 5.0 10.0 0.00 0.00 0.00 31 1009.3
20260508164538 59 248 3.0 10.0 0.00 0.00 0.00 29 1009.4
20260508164030 60 216 4.0 10.0 0.00 0.00 0.00 28 1009.5
20260508163527 60 175 2.0 6.0 0.00 0.00 0.00 32 1009.4
20260508163044 60 192 3.0 6.0 0.00 0.00 0.00 29 1009.5
20260508162531 60 219 3.0 6.0 0.00 0.00 0.00 33 1009.7
20260508162030 59 222 1.0 5.0 0.00 0.00 0.00 34 1009.8
20260508161543 59 287 2.0 8.0 0.00 0.00 0.00 32 1009.8
20260508161030 58 219 2.0 11.0 0.00 0.00 0.00 34 1009.9
20260508160527 57 229 4.0 11.0 0.00 0.00 0.00 34 1010.0
20260508160038 58 302 2.0 7.0 0.00 0.00 0.00 32 1009.8
20260508155530 58 231 2.0 10.0 0.00 0.00 0.00 35 1010.0
20260508155030 57 229 2.0 10.0 0.00 0.00 0.00 34 1010.1
20260508154536 58 267 3.0 7.0 0.00 0.00 0.00 32 1010.1
20260508154032 57 226 2.0 7.0 0.00 0.00 0.00 40 1010.1
20260508153530 57 219 3.0 7.0 0.00 0.00 0.00 39 1010.2
20260508153037 58 195 4.0 7.0 0.00 0.00 0.00 38 1010.1
20260508152532 57 165 0.0 8.0 0.00 0.00 0.00 39 1010.2
20260508152027 57 218 1.0 8.0 0.00 0.00 0.00 38 1010.2
20260508151541 57 194 3.0 7.0 0.00 0.00 0.00 40 1010.3
20260508151030 57 227 3.0 5.0 0.00 0.00 0.00 41 1010.3
20260508150532 56 259 2.0 5.0 0.00 0.00 0.00 38 1010.2
20260508150044 56 219 2.0 5.0 0.00 0.00 0.00 39 1010.4
20260508145532 56 186 3.0 6.0 0.00 0.00 0.00 41 1010.3
20260508145027 56 166 2.0 6.0 0.00 0.00 0.00 41 1010.3
20260508144540 55 228 2.0 6.0 0.00 0.00 0.00 43 1010.4
20260508144034 55 187 3.0 7.0 0.00 0.00 0.00 42 1010.6
20260508143527 55 195 3.0 7.0 0.00 0.00 0.00 44 1010.5
20260508143036 55 238 2.0 7.0 0.00 0.00 0.00 46 1010.6
20260508142531 55 188 2.0 5.0 0.00 0.00 0.00 49 1010.7
20260508142029 54 212 3.0 5.0 0.00 0.00 0.00 47 1010.7
20260508141542 54 184 2.0 6.0 0.00 0.00 0.00 50 1010.7
20260508141030 53 203 3.0 6.0 0.00 0.00 0.00 51 1010.7
20260508140533 53 185 2.0 4.0 0.00 0.00 0.00 52 1010.7
20260508140043 53 230 2.0 5.0 0.00 0.00 0.00 53 1010.9
20260508135528 52 186 2.0 6.0 0.00 0.00 0.00 56 1010.8
20260508135031 52 190 3.0 6.0 0.00 0.00 0.00 56 1010.9
20260508134540 51 197 3.0 5.0 0.00 0.00 0.00 57 1010.9
20260508134029 51 213 3.0 6.0 0.00 0.00 0.00 58 1010.9
20260508133532 50 204 3.0 6.0 0.00 0.00 0.00 62 1011.0
20260508133038 50 225 3.0 5.0 0.00 0.00 0.00 60 1010.9
20260508132527 50 177 3.0 5.0 0.00 0.00 0.00 61 1011.0
20260508132027 49 214 2.0 5.0 0.00 0.00 0.00 63 1011.0
20260508131539 48 177 2.0 4.0 0.00 0.00 0.00 63 1011.0
20260508131030 48 200 2.0 4.0 0.00 0.00 0.00 64 1011.2
20260508130526 47 194 1.0 5.0 0.00 0.00 0.00 65 1011.1
20260508130056 47 237 2.0 5.0 0.00 0.00 0.00 65 1011.2
20260508125526 47 201 2.0 5.0 0.00 0.00 0.00 66 1011.2
20260508125031 46 224 1.0 3.0 0.00 0.00 0.00 69 1011.1
20260508124535 45 209 1.0 3.0 0.00 0.00 0.00 72 1011.1
20260508124026 45 212 1.0 3.0 0.00 0.00 0.00 72 1011.1
20260508123531 44 195 1.0 2.0 0.00 0.00 0.00 74 1011.2
20260508123043 44 223 1.0 2.0 0.00 0.00 0.00 75 1011.1
20260508122528 43 230 1.0 2.0 0.00 0.00 0.00 76 1011.1
20260508122029 43 212 0.0 1.0 0.00 0.00 0.00 77 1011.1
20260508121554 42 198 0.0 2.0 0.00 0.00 0.00 79 1011.1
20260508121027 41 198 0.0 2.0 0.00 0.00 0.00 81 1011.1
20260508120526 41 0 0.0 2.0 0.00 0.00 0.00 82 1010.9
20260508120038 40 231 0.0 1.0 0.00 0.00 0.00 83 1010.8
20260508115528 39 231 0.0 1.0 0.00 0.00 0.00 85 1010.8
20260508115026 38 0 0.0 1.0 0.00 0.00 0.00 87 1010.8
20260508114535 37 231 0.0 2.0 0.00 0.00 0.00 87 1010.7
20260508114027 36 0 1.0 2.0 0.00 0.00 0.00 87 1010.7
20260508113526 35 0 0.0 1.0 0.00 0.00 0.00 88 1010.8
20260508113041 35 0 0.0 1.0 0.00 0.00 0.00 88 1010.7
20260508112527 34 0 0.0 0.0 0.00 0.00 0.00 88 1010.7
20260508112027 34 0 0.0 1.0 0.00 0.00 0.00 87 1010.8
20260508111541 35 0 0.0 1.0 0.00 0.00 0.00 87 1010.6
20260508111026 35 231 0.0 1.0 0.00 0.00 0.00 87 1010.5
20260508110528 35 231 0.0 1.0 0.00 0.00 0.00 87 1010.6
20260508110037 35 231 1.0 1.0 0.00 0.00 0.00 87 1010.6
20260508105530 34 231 0.0 1.0 0.00 0.00 0.00 87 1010.6
20260508105029 34 231 0.0 1.0 0.00 0.00 0.00 87 1010.6
20260508104603 34 0 0.0 1.0 0.00 0.00 0.00 87 1010.6
20260508104029 34 0 0.0 1.0 0.00 0.00 0.00 88 1010.6
20260508103528 34 0 0.0 1.0 0.00 0.00 0.00 89 1010.7
20260508103045 34 232 0.0 1.0 0.00 0.00 0.00 89 1010.7
20260508102529 33 0 0.0 1.0 0.00 0.00 0.00 89 1010.7
20260508102027 33 0 0.0 0.0 0.00 0.00 0.00 89 1010.7
20260508101542 33 0 0.0 0.0 0.00 0.00 0.00 89 1010.8
20260508101030 33 0 0.0 1.0 0.00 0.00 0.00 89 1010.8
20260508100528 33 0 0.0 1.0 0.00 0.00 0.00 89 1010.9
20260508100041 32 0 0.0 0.0 0.00 0.00 0.00 89 1010.9
20260508095527 32 0 0.0 0.0 0.00 0.00 0.00 88 1010.9
20260508095027 33 0 0.0 0.0 0.00 0.00 0.00 87 1010.9
20260508094544 33 0 0.0 0.0 0.00 0.00 0.00 87 1010.9
20260508094029 33 0 0.0 1.0 0.00 0.00 0.00 87 1010.9
20260508093530 33 0 0.0 1.0 0.00 0.00 0.00 88 1010.9
20260508093038 34 0 0.0 1.0 0.00 0.00 0.00 87 1010.9
20260508092530 34 0 0.0 1.0 0.00 0.00 0.00 87 1010.9
20260508092028 34 0 0.0 1.0 0.00 0.00 0.00 86 1010.9
20260508091544 34 0 0.0 1.0 0.00 0.00 0.00 86 1011.1
20260508091029 34 232 0.0 1.0 0.00 0.00 0.00 85 1011.0
20260508090529 34 0 0.0 0.0 0.00 0.00 0.00 85 1010.9
20260508085531 35 0 0.0 1.0 0.00 0.00 0.00 85 1011.0
20260508085029 35 0 0.0 1.0 0.00 0.00 0.00 85 1010.9
20260508084541 35 0 0.0 1.0 0.00 0.00 0.00 84 1011.0
20260508084032 36 0 0.0 1.0 0.00 0.00 0.00 83 1010.9
20260508083533 36 0 0.0 1.0 0.00 0.00 0.00 83 1010.9
20260508083102 36 0 0.0 1.0 0.00 0.00 0.00 83 1010.9
20260508082529 37 232 0.0 2.0 0.00 0.00 0.00 82 1011.0
20260508082028 37 231 0.0 2.0 0.00 0.00 0.00 82 1011.0
20260508081552 37 232 0.0 2.0 0.00 0.00 0.00 83 1011.0
20260508081031 36 282 0.0 1.0 0.00 0.00 0.00 83 1011.0
20260508080533 37 0 0.0 1.0 0.00 0.00 0.00 83 1011.0
20260508080043 37 0 0.0 1.0 0.00 0.00 0.00 83 1011.1
20260508075531 37 282 0.0 1.0 0.00 0.00 0.00 83 1010.9
20260508075033 36 282 0.0 1.0 0.00 0.00 0.00 84 1011.0
20260508074536 36 0 0.0 1.0 0.00 0.00 0.00 83 1011.0
20260508074032 37 0 0.0 1.0 0.00 0.00 0.00 83 1011.1
20260508073529 37 0 0.0 1.0 0.00 0.00 0.00 84 1011.1
20260508073039 37 282 0.0 1.0 0.00 0.00 0.00 83 1011.0
20260508072531 37 0 0.0 1.0 0.00 0.00 0.00 82 1011.2
20260508072029 38 0 0.0 1.0 0.00 0.00 0.00 82 1011.2
20260508071541 38 0 0.0 1.0 0.00 0.00 0.00 81 1011.2
20260508071030 38 0 0.0 1.0 0.00 0.00 0.00 81 1011.2
20260508070532 38 0 0.0 1.0 0.00 0.00 0.00 81 1011.3
20260508070136 38 0 0.0 1.0 0.00 0.00 0.00 80 1011.4
20260508065528 38 0 0.0 1.0 0.00 0.00 0.00 80 1011.2
20260508065028 38 0 0.0 1.0 0.00 0.00 0.00 80 1011.4
20260508064543 38 0 0.0 1.0 0.00 0.00 0.00 80 1011.4
20260508064028 38 0 0.0 1.0 0.00 0.00 0.00 80 1011.4
20260508063532 38 0 0.0 1.0 0.00 0.00 0.00 80 1011.4
20260508063041 38 0 0.0 1.0 0.00 0.00 0.00 80 1011.5
20260508062528 38 0 0.0 1.0 0.00 0.00 0.00 80 1011.5
20260508062027 39 0 0.0 1.0 0.00 0.00 0.00 79 1011.6
20260508061548 39 0 0.0 1.0 0.00 0.00 0.00 79 1011.5
20260508061033 39 0 0.0 1.0 0.00 0.00 0.00 79 1011.6
20260508060534 40 0 0.0 1.0 0.00 0.00 0.00 78 1011.6
20260508060044 40 0 0.0 1.0 0.00 0.00 0.00 78 1011.7
20260508055531 40 0 0.0 0.0 0.00 0.00 0.00 77 1011.6
20260508055028 40 0 0.0 1.0 0.00 0.00 0.00 76 1011.7
20260508054543 41 0 0.0 1.0 0.00 0.00 0.00 75 1011.6
20260508054030 41 0 0.0 1.0 0.00 0.00 0.00 74 1011.6
20260508053528 41 0 0.0 1.0 0.00 0.00 0.00 74 1011.5
20260508053052 41 282 0.0 1.0 0.00 0.00 0.00 72 1011.5
20260508052531 42 282 0.0 1.0 0.00 0.00 0.00 72 1011.5
20260508052030 42 0 0.0 1.0 0.00 0.00 0.00 72 1011.5
20260508051538 42 0 0.0 1.0 0.00 0.00 0.00 72 1011.4
20260508051031 42 0 0.0 1.0 0.00 0.00 0.00 72 1011.4
20260508050531 43 0 0.0 1.0 0.00 0.00 0.00 71 1011.3
20260508050048 43 0 0.0 1.0 0.00 0.00 0.00 70 1011.3
20260508045533 43 0 0.0 1.0 0.00 0.00 0.00 67 1011.3
20260508045027 44 0 0.0 2.0 0.00 0.00 0.00 67 1011.4
20260508044542 44 290 0.0 2.0 0.00 0.00 0.00 67 1011.5
20260508044031 44 289 0.0 2.0 0.00 0.00 0.00 67 1011.6
20260508043530 44 290 0.0 2.0 0.00 0.00 0.00 67 1011.5